Orangeburg, SC

10:43 PM EDT on June 25, 2017 (GMT -0400)
Orangeburg Municipal

Weather History for KOGB - October, 2011

Change the Weather History Date:

Thursday, October 27, 2011

  Actual Average Record
Temperature  
Mean Temperature 66 °F 62 °F  
Max Temperature 80 °F 74 °F 87 °F (2010)
Min Temperature 52 °F 50 °F 30 °F (1962)
Degree Days  
Heating Degree Days 0 5  
Month to date heating degree days 79 65  
Since 1 July heating degree days 80 69  
Cooling Degree Days 1 1  
Month to date cooling degree days 36 88  
Year to date cooling degree days 2470 2082  
Growing Degree Days 15 (Base 50)    
Moisture  
Dew Point 53 °F    
Average Humidity 74    
Maximum Humidity 100    
Minimum Humidity 39    
Precipitation  
Precipitation 0.00 in 0.07 in 1.15 in (1987)
Month to date precipitation 1.71 3.10  
Year to date precipitation 33.95 40.20  
Sea Level Pressure  
Sea Level Pressure 29.93 in    
Wind  
Wind Speed 6 mph (WSW)    
Max Wind Speed 5 mph    
Max Gust Speed 7 mph    
Visibility 8 miles    
Events Fog    
T = Trace of Precipitation, MM = Missing Value Source: NWS Daily Summary

Daily Weather History Graph

Daily Weather History Graph

Search for Another Location

Airport or City:

Trip Planner

Search our weather history database for the weather conditions in past years. The results will help you decide how hot, cold, wet, or windy it might be!

Date:

Astronomy

Oct. 27, 2011 Rise Set
Actual Time 7:37 AM EDT 6:36 PM EDT
Civil Twilight 7:12 AM EDT 7:02 PM EDT
Nautical Twilight 6:42 AM EDT 7:31 PM EDT
Astronomical Twilight 6:14 AM EDT 8:00 PM EDT
Moon 8:32 AM EDT (10/27) 7:11 PM EDT (10/27)
Length of Visible Light 11h 49m
Length of Day
10h 59m
New Moon, 1% of the Moon is Illuminated
Oct 27
New Moon
Nov 2
First Quarter
Nov 10
Full
Nov 18
Last Quarter
Nov 25
New

Hourly Weather History & Observations

Time (EDT) Temp. Dew Point Humidity Pressure Visibility Wind Dir Wind Speed Gust Speed Precip Events Conditions
12:53 AM 57.9 °F 54.0 °F 87% 29.99 in 10.0 mi SW 3.5 mph - N/A   Clear
1:53 AM 57.0 °F 54.0 °F 89% 29.99 in 10.0 mi Calm Calm - N/A   Clear
2:53 AM 54.0 °F 53.1 °F 97% 29.98 in 8.0 mi Calm Calm - N/A   Clear
4:53 AM 55.9 °F 54.0 °F 93% 29.96 in 9.0 mi SW 3.5 mph - N/A   Clear
5:53 AM 54.0 °F 52.0 °F 93% 29.96 in 7.0 mi Calm Calm - N/A   Partly Cloudy
6:53 AM 54.0 °F 52.0 °F 93% 29.96 in 4.0 mi Calm Calm - N/A   Partly Cloudy
7:06 AM 53.6 °F 51.8 °F 94% 29.96 in 1.5 mi Calm Calm - N/A   Clear
7:17 AM 51.8 °F 51.8 °F 100% 29.95 in 0.5 mi Calm Calm - N/A Fog Fog
7:27 AM 51.8 °F 51.8 °F 100% 29.95 in 1.8 mi Calm Calm - N/A   Clear
7:34 AM 53.6 °F 51.8 °F 94% 29.95 in 1.5 mi Calm Calm - N/A   Clear
7:51 AM 53.6 °F 51.8 °F 94% 29.96 in 2.0 mi Calm Calm - N/A   Clear
8:53 AM 59.0 °F 55.9 °F 90% 29.96 in 8.0 mi SW 3.5 mph - N/A   Mostly Cloudy
9:53 AM 66.0 °F 57.9 °F 75% 29.96 in 10.0 mi SW 5.8 mph - N/A   Mostly Cloudy
10:53 AM 73.0 °F 55.0 °F 53% 29.95 in 10.0 mi West 11.5 mph - N/A   Partly Cloudy
11:53 AM 75.9 °F 52.0 °F 43% 29.94 in 10.0 mi WSW 16.1 mph 20.7 mph N/A   Clear
12:53 PM 79.0 °F 52.0 °F 39% 29.91 in 10.0 mi WSW 13.8 mph 23.0 mph N/A   Mostly Cloudy
1:53 PM 79.0 °F 52.0 °F 39% 29.88 in 10.0 mi West 12.7 mph 19.6 mph N/A   Overcast
2:53 PM 79.0 °F 51.1 °F 38% 29.86 in 10.0 mi WSW 17.3 mph 24.2 mph N/A   Scattered Clouds
3:53 PM 79.0 °F 52.0 °F 39% 29.86 in 10.0 mi West 15.0 mph 19.6 mph N/A   Scattered Clouds
4:53 PM 78.1 °F 52.0 °F 40% 29.86 in 10.0 mi WNW 11.5 mph - N/A   Clear
5:53 PM 75.0 °F 52.0 °F 44% 29.86 in 10.0 mi West 9.2 mph - N/A   Clear
6:53 PM 66.9 °F 54.0 °F 63% 29.87 in 10.0 mi Calm Calm - N/A   Clear
7:53 PM 63.0 °F 55.0 °F 75% 29.89 in 10.0 mi WSW 3.5 mph - N/A   Clear
8:53 PM 63.0 °F 54.0 °F 72% 29.89 in 10.0 mi SW 4.6 mph - N/A   Clear
9:53 PM 61.0 °F 53.1 °F 75% 29.90 in 10.0 mi Calm Calm - N/A   Clear
10:53 PM 57.0 °F 54.0 °F 89% 29.91 in 10.0 mi Calm Calm - N/A   Clear
11:53 PM 57.0 °F 54.0 °F 89% 29.91 in 10.0 mi Calm Calm - N/A   Clear